DW1653 Weather Reports


Display with metric or nautical units.
time (UTC)temp
F
wind
direction
speed
MPH
gust
MPH
rain 1hr
in
rain 24hr
in
rain mn
in
humidity
%
barometer
mb
20260510090833 51 53 2.0 4.0 0.00 0.01 0.00 92 1011.6
20260510090343 50 42 2.0 4.0 0.00 0.01 0.00 92 1011.7
20260510085814 50 17 2.0 5.0 0.00 0.01 0.00 92 1011.7
20260510085325 50 32 2.0 5.0 0.00 0.01 0.00 92 1011.7
20260510084816 50 28 2.0 5.0 0.00 0.01 0.00 92 1011.6
20260510084331 50 45 3.0 5.0 0.00 0.01 0.00 92 1011.7
20260510083822 50 360 2.0 4.0 0.00 0.01 0.00 92 1011.7
20260510083354 50 23 2.0 4.0 0.00 0.01 0.00 92 1011.6
20260510082824 50 22 1.0 4.0 0.00 0.01 0.00 92 1011.6
20260510082325 49 27 1.0 2.0 0.00 0.01 0.00 91 1011.5
20260510081328 49 317 1.0 2.0 0.00 0.01 0.00 91 1011.4
20260510080822 49 317 0.0 1.0 0.00 0.01 0.00 91 1011.4
20260510080316 49 317 0.0 1.0 0.00 0.01 0.00 91 1011.3
20260510075828 49 317 0.0 0.0 0.00 0.01 0.00 91 1011.2
20260510075343 50 317 0.0 1.0 0.00 0.01 0.00 91 1011.2
20260510074813 50 317 0.0 1.0 0.00 0.01 0.00 91 1011.1
20260510074348 49 317 0.0 1.0 0.00 0.01 0.00 91 1011.1
20260510073823 49 290 0.0 1.0 0.00 0.01 0.00 91 1011.0
20260510073334 49 290 0.0 1.0 0.00 0.01 0.00 91 1011.1
20260510072826 50 290 0.0 1.0 0.00 0.01 0.00 91 1011.0
20260510072322 50 290 0.0 1.0 0.00 0.01 0.00 91 1010.9
20260510071835 50 290 0.0 1.0 0.00 0.01 0.00 91 1011.0
20260510071326 50 290 0.0 0.0 0.00 0.01 0.00 91 1011.0
20260510070817 50 290 0.0 0.0 0.00 0.01 0.00 91 1011.0
20260510070332 50 290 0.0 0.0 0.00 0.01 0.00 91 1011.0
20260510065823 50 290 0.0 0.0 0.00 0.01 0.00 91 1011.0
20260510065321 50 290 0.0 1.0 0.00 0.01 0.00 91 1011.0
20260510064832 50 290 0.0 1.0 0.00 0.01 0.00 91 1011.0
20260510064344 50 290 0.0 1.0 0.00 0.01 0.00 91 1011.1
20260510063837 50 290 0.0 1.0 0.00 0.01 0.00 91 1011.1
20260510062823 50 290 0.0 1.0 0.00 0.01 0.00 91 1011.0
20260510062334 50 290 0.0 1.0 0.00 0.01 0.00 91 1011.1
20260510061826 50 290 0.0 1.0 0.00 0.01 0.00 91 1011.0
20260510061337 50 290 0.0 1.0 0.00 0.01 0.00 91 1011.1
20260510060814 50 290 0.0 1.0 0.00 0.01 0.00 91 1011.0
20260510060325 50 290 0.0 1.0 0.00 0.01 0.00 91 1011.1
20260510055817 50 290 0.0 1.0 0.00 0.01 0.00 90 1011.1
20260510055351 50 290 0.0 1.0 0.00 0.01 0.00 91 1011.2
20260510054822 50 290 0.0 1.0 0.00 0.01 0.00 90 1011.1
20260510054333 50 290 0.0 1.0 0.00 0.01 0.00 90 1011.2
20260510053825 50 290 0.0 1.0 0.00 0.01 0.00 90 1011.3
20260510053336 50 281 0.0 1.0 0.00 0.01 0.00 90 1011.3
20260510052830 50 281 0.0 1.0 0.00 0.01 0.00 90 1011.2
20260510052321 50 281 0.0 1.0 0.00 0.01 0.00 90 1011.4
20260510051820 50 281 0.0 0.0 0.00 0.01 0.00 90 1011.4
20260510051332 50 281 0.0 0.0 0.00 0.01 0.00 90 1011.4
20260510050842 50 281 0.0 0.0 0.00 0.01 0.00 90 1011.3
20260510050333 51 281 0.0 0.0 0.00 0.01 0.00 90 1011.4
20260510045825 51 281 0.0 0.0 0.00 0.01 0.00 90 1011.4
20260510045316 51 281 0.0 2.0 0.00 0.01 0.00 90 1011.5
20260510044828 51 281 0.0 2.0 0.00 0.01 0.00 90 1011.6
20260510044320 51 297 0.0 2.0 0.00 0.01 0.00 90 1011.6
20260510043814 50 267 1.0 2.0 0.00 0.01 0.00 90 1011.6
20260510043326 50 46 0.0 2.0 0.00 0.01 0.00 89 1011.6
20260510042818 50 46 0.0 1.0 0.00 0.01 0.00 89 1011.6
20260510042330 51 46 0.0 0.0 0.00 0.01 0.00 89 1011.7
20260510041822 51 46 0.0 0.0 0.00 0.01 0.00 89 1011.6
20260510041333 51 46 0.0 0.0 0.00 0.01 0.00 89 1011.6
20260510040316 51 46 0.0 0.0 0.00 0.01 0.00 89 1011.6
20260510035823 51 46 0.0 0.0 0.00 0.01 0.00 89 1011.5
20260510035319 51 46 0.0 0.0 0.00 0.01 0.00 89 1011.4
20260510034833 51 46 0.0 0.0 0.00 0.01 0.00 89 1011.3
20260510034325 51 46 0.0 0.0 0.00 0.01 0.00 89 1011.2
20260510033820 51 46 0.0 0.0 0.00 0.01 0.01 89 1011.1
20260510033315 51 46 0.0 1.0 0.00 0.01 0.01 89 1011.0
20260510032826 51 46 0.0 1.0 0.00 0.01 0.01 89 1010.9
20260510032317 52 46 0.0 0.0 0.00 0.01 0.01 89 1011.1
20260510031828 52 46 0.0 0.0 0.00 0.01 0.01 89 1011.1
20260510030818 52 46 0.0 1.0 0.00 0.01 0.01 89 1011.2
20260510030329 52 46 0.0 1.0 0.00 0.01 0.01 89 1011.2
20260510025824 52 46 0.0 0.0 0.00 0.01 0.01 89 1011.1
20260510025315 52 46 0.0 0.0 0.00 0.01 0.01 89 1011.2
20260510024829 52 46 0.0 0.0 0.00 0.01 0.01 89 1011.2
20260510024319 52 46 0.0 0.0 0.00 0.01 0.01 89 1011.2
20260510023815 52 46 0.0 0.0 0.00 0.01 0.01 89 1011.1
20260510023333 52 46 0.0 0.0 0.00 0.01 0.01 89 1011.1
20260510022824 53 46 0.0 0.0 0.00 0.01 0.01 89 1011.2
20260510022336 53 46 0.0 0.0 0.00 0.01 0.01 89 1011.2
20260510021847 53 46 0.0 0.0 0.00 0.01 0.01 89 1011.3
20260510021317 53 46 0.0 1.0 0.00 0.01 0.01 89 1011.2
20260510020828 53 46 0.0 2.0 0.00 0.01 0.01 89 1011.1
20260510020320 53 46 0.0 2.0 0.00 0.01 0.01 89 1011.2
20260510015851 53 46 1.0 2.0 0.00 0.01 0.01 89 1011.2
20260510015322 53 46 0.0 0.0 0.00 0.01 0.01 89 1011.3
20260510014834 53 46 0.0 2.0 0.00 0.01 0.01 89 1011.3
20260510014329 53 46 0.0 2.0 0.00 0.01 0.01 89 1011.2
20260510013843 54 46 0.0 2.0 0.00 0.01 0.01 89 1011.2
20260510013334 54 46 1.0 2.0 0.00 0.01 0.01 89 1011.2
20260510012825 54 46 0.0 2.0 0.00 0.01 0.01 89 1011.2
20260510012316 54 46 0.0 3.0 0.00 0.01 0.01 89 1011.1
20260510011826 54 46 1.0 3.0 0.00 0.01 0.01 89 1011.1
20260510011316 54 59 1.0 3.0 0.00 0.01 0.01 88 1011.1
20260510010828 54 46 1.0 3.0 0.00 0.01 0.01 89 1011.1
20260510010322 54 44 0.0 3.0 0.00 0.01 0.01 89 1011.1
20260510005818 54 39 1.0 3.0 0.00 0.01 0.01 88 1011.0
20260510005329 54 80 1.0 3.0 0.00 0.01 0.01 88 1011.0
20260510004820 54 46 2.0 3.0 0.00 0.01 0.01 88 1010.9
20260510004332 54 34 2.0 4.0 0.00 0.01 0.01 88 1010.8
20260510003824 55 55 2.0 4.0 0.00 0.01 0.01 88 1010.8
20260510003315 55 55 1.0 5.0 0.00 0.01 0.01 88 1010.9
20260510002322 55 53 2.0 4.0 0.00 0.01 0.01 88 1010.9
20260510001854 55 53 1.0 4.0 0.00 0.01 0.01 88 1010.9
20260510001328 55 61 0.0 3.0 0.00 0.01 0.01 88 1010.9
20260510000820 56 58 1.0 4.0 0.00 0.01 0.01 88 1010.6
20260510000330 56 69 1.0 4.0 0.00 0.01 0.01 88 1010.5
20260509235822 56 52 1.0 5.0 0.00 0.01 0.01 88 1010.5
20260509235313 56 46 2.0 5.0 0.00 0.01 0.01 88 1010.5
20260509234828 57 33 2.0 5.0 0.00 0.01 0.01 88 1010.4
20260509234319 57 62 2.0 6.0 0.00 0.01 0.01 88 1010.4
20260509233834 57 75 3.0 6.0 0.01 0.01 0.01 88 1010.4
20260509233329 58 71 3.0 6.0 0.01 0.01 0.01 88 1010.3
20260509232311 58 38 3.0 7.0 0.01 0.01 0.01 88 1010.3
20260509231826 58 53 2.0 6.0 0.01 0.01 0.01 88 1010.3
20260509231317 58 20 2.0 8.0 0.01 0.01 0.01 89 1010.3
20260509230829 58 28 4.0 8.0 0.01 0.01 0.01 89 1010.4
20260509230340 59 57 4.0 7.0 0.01 0.01 0.01 89 1010.5
20260509225830 59 30 2.0 6.0 0.01 0.01 0.01 89 1010.5
20260509225321 59 36 3.0 8.0 0.01 0.01 0.01 89 1010.4
20260509224816 59 355 3.0 9.0 0.01 0.01 0.01 90 1010.4
20260509224328 59 34 3.0 9.0 0.01 0.01 0.01 90 1010.4
20260509223823 59 98 2.0 4.0 0.00 0.00 0.00 90 1010.6
20260509223315 58 331 1.0 3.0 0.00 0.00 0.00 90 1011.4
20260509222827 58 293 1.0 2.0 0.00 0.00 0.00 90 1011.3
20260509222318 58 265 1.0 2.0 0.00 0.00 0.00 90 1011.1
20260509221830 58 157 0.0 1.0 0.00 0.00 0.00 90 1011.0
20260509221321 57 127 0.0 1.0 0.00 0.00 0.00 89 1010.8
20260509220852 57 127 0.0 1.0 0.00 0.00 0.00 90 1010.8
20260509220326 57 127 0.0 3.0 0.00 0.00 0.00 90 1010.8
20260509215819 57 127 2.0 3.0 0.00 0.00 0.00 89 1010.8
20260509215330 57 125 1.0 4.0 0.00 0.00 0.00 89 1010.8
20260509214820 57 150 2.0 4.0 0.00 0.00 0.00 89 1010.8
20260509214332 57 136 1.0 3.0 0.00 0.00 0.00 89 1010.6
20260509213823 57 157 1.0 3.0 0.00 0.00 0.00 89 1010.5
20260509213315 57 123 0.0 3.0 0.00 0.00 0.00 89 1010.2
20260509212826 57 148 1.0 3.0 0.00 0.00 0.00 89 1010.4
20260509212320 57 175 1.0 3.0 0.00 0.00 0.00 89 1010.4
20260509211832 57 183 1.0 3.0 0.00 0.00 0.00 89 1010.5
20260509211324 57 138 2.0 4.0 0.00 0.00 0.00 89 1010.5
20260509210815 57 133 2.0 6.0 0.00 0.00 0.00 89 1010.5
20260509210327 57 143 2.0 6.0 0.00 0.00 0.00 89 1010.6
20260509205822 57 166 2.0 7.0 0.00 0.00 0.00 89 1010.7
20260509205333 57 190 4.0 9.0 0.00 0.00 0.00 88 1010.7
20260509204844 57 157 5.0 9.0 0.00 0.00 0.00 88 1010.7
20260509204335 57 110 3.0 10.0 0.00 0.00 0.00 88 1010.7
20260509203826 57 146 3.0 10.0 0.00 0.00 0.00 88 1010.9
20260509203322 58 203 6.0 10.0 0.00 0.00 0.00 87 1010.8
20260509202833 58 142 3.0 11.0 0.00 0.00 0.00 87 1010.8
20260509202325 58 196 5.0 14.0 0.00 0.00 0.00 87 1010.5
20260509201816 58 157 7.0 13.0 0.00 0.00 0.00 87 1010.6
20260509201328 58 170 4.0 9.0 0.00 0.00 0.00 86 1010.5
20260509200819 58 123 3.0 10.0 0.00 0.00 0.00 86 1010.6
20260509200311 58 188 4.0 12.0 0.00 0.00 0.00 86 1010.7
20260509195825 58 117 3.0 14.0 0.00 0.00 0.00 85 1010.8
20260509195321 58 192 6.0 14.0 0.00 0.00 0.00 85 1011.0
20260509194812 57 212 5.0 13.0 0.00 0.00 0.00 85 1011.0
20260509194326 57 191 5.0 12.0 0.00 0.00 0.00 84 1010.9
20260509193817 57 184 4.0 18.0 0.00 0.00 0.00 84 1010.8
20260509193331 58 155 7.0 18.0 0.00 0.00 0.00 84 1010.9
20260509192822 58 279 5.0 23.0 0.00 0.00 0.00 83 1010.9
20260509192318 58 175 10.0 23.0 0.00 0.00 0.00 83 1010.9
20260509191848 58 165 11.0 17.0 0.00 0.00 0.00 82 1010.9
20260509191339 59 49 7.0 18.0 0.00 0.00 0.00 83 1010.9
20260509190816 59 132 5.0 17.0 0.00 0.00 0.00 82 1010.8
20260509190331 59 160 7.0 19.0 0.00 0.00 0.00 82 1010.9
20260509185822 59 188 7.0 23.0 0.00 0.00 0.00 81 1010.9
20260509185317 60 173 9.0 23.0 0.00 0.00 0.00 80 1010.7
20260509184828 60 163 9.0 24.0 0.00 0.00 0.00 80 1010.7
20260509184318 60 185 11.0 25.0 0.00 0.00 0.00 80 1010.8
20260509183830 60 164 9.0 25.0 0.00 0.00 0.00 79 1010.8
20260509183324 61 186 10.0 23.0 0.00 0.00 0.00 78 1010.9
20260509182820 61 160 9.0 23.0 0.00 0.00 0.00 76 1011.0
20260509182330 61 190 12.0 22.0 0.00 0.00 0.00 74 1011.0
20260509181825 62 127 8.0 17.0 0.00 0.00 0.00 75 1011.0
20260509181316 61 194 7.0 16.0 0.00 0.00 0.00 77 1010.9
20260509180828 60 203 8.0 16.0 0.00 0.00 0.00 78 1010.9
20260509180318 60 233 6.0 23.0 0.00 0.00 0.00 78 1010.9
20260509175830 59 157 10.0 23.0 0.00 0.00 0.00 78 1010.8
20260509175321 59 166 7.0 20.0 0.00 0.00 0.00 78 1010.8
20260509174853 59 155 9.0 20.0 0.00 0.00 0.00 77 1010.9
20260509174327 59 167 7.0 24.0 0.00 0.00 0.00 78 1010.9
20260509173822 59 92 8.0 24.0 0.00 0.00 0.00 77 1010.9
20260509173355 59 150 8.0 21.0 0.00 0.00 0.00 76 1010.9
20260509172825 60 164 8.0 21.0 0.00 0.00 0.00 74 1010.8
20260509172319 62 223 6.0 17.0 0.00 0.00 0.00 74 1010.9
20260509171831 63 149 6.0 13.0 0.00 0.00 0.00 74 1010.7
20260509171323 63 208 6.0 13.0 0.00 0.00 0.00 74 1010.7
20260509170835 64 200 8.0 13.0 0.00 0.00 0.00 74 1010.7
20260509170325 63 128 5.0 15.0 0.00 0.00 0.00 74 1010.7
20260509165821 63 159 7.0 15.0 0.00 0.00 0.00 73 1010.7
20260509165314 63 181 6.0 18.0 0.00 0.00 0.00 72 1010.8
20260509164826 63 192 7.0 18.0 0.00 0.00 0.00 72 1010.8
20260509164318 63 117 4.0 15.0 0.00 0.00 0.00 73 1011.0
20260509163830 63 128 6.0 13.0 0.00 0.00 0.00 73 1011.2
20260509163321 63 148 7.0 19.0 0.00 0.00 0.00 73 1011.3
20260509162832 63 207 8.0 19.0 0.00 0.00 0.00 72 1011.5
20260509162324 63 168 4.0 12.0 0.00 0.00 0.00 73 1011.5
20260509161820 64 186 7.0 13.0 0.00 0.00 0.00 72 1011.6
20260509161331 63 193 5.0 15.0 0.00 0.00 0.00 73 1011.7
20260509160822 63 153 5.0 17.0 0.00 0.00 0.00 73 1011.7
20260509160318 63 171 6.0 19.0 0.00 0.00 0.00 72 1011.9
20260509155832 63 181 8.0 19.0 0.00 0.00 0.00 71 1012.0
20260509155323 64 200 8.0 15.0 0.00 0.00 0.00 70 1012.0
20260509154818 64 244 4.0 12.0 0.00 0.00 0.00 70 1012.1
20260509154332 65 196 6.0 12.0 0.00 0.00 0.00 69 1012.0
20260509153843 65 172 5.0 12.0 0.00 0.00 0.00 69 1012.1
20260509153318 65 117 4.0 15.0 0.00 0.00 0.00 70 1012.0
20260509152850 66 157 8.0 16.0 0.00 0.00 0.00 68 1012.1
20260509152320 66 170 6.0 16.0 0.00 0.00 0.00 68 1012.1
20260509151851 66 154 5.0 10.0 0.00 0.00 0.00 69 1012.2
20260509151321 66 175 5.0 10.0 0.00 0.00 0.00 69 1012.2
20260509150833 66 168 5.0 15.0 0.00 0.00 0.00 68 1012.2
20260509150324 66 165 4.0 15.0 0.00 0.00 0.00 69 1012.3
20260509145816 66 211 5.0 12.0 0.00 0.00 0.00 68 1012.3
20260509145328 66 196 8.0 14.0 0.00 0.00 0.00 67 1012.2
20260509144826 67 169 6.0 14.0 0.00 0.00 0.00 67 1012.3
20260509144318 67 171 5.0 12.0 0.00 0.00 0.00 67 1012.3
20260509143849 67 161 5.0 12.0 0.00 0.00 0.00 67 1012.2
20260509143319 67 212 6.0 13.0 0.00 0.00 0.00 66 1012.3
20260509142813 67 175 4.0 13.0 0.00 0.00 0.00 66 1012.3
20260509142327 67 174 6.0 12.0 0.00 0.00 0.00 65 1012.4
20260509141819 67 182 6.0 12.0 0.00 0.00 0.00 66 1012.3
20260509141354 68 200 6.0 11.0 0.00 0.00 0.00 65 1012.3
20260509140824 68 141 5.0 15.0 0.00 0.00 0.00 64 1012.3
20260509140320 68 130 7.0 16.0 0.00 0.00 0.00 63 1012.3
20260509135834 68 132 9.0 16.0 0.00 0.00 0.00 63 1012.3
20260509135325 67 219 5.0 15.0 0.00 0.00 0.00 64 1012.3
20260509134817 67 189 6.0 15.0 0.00 0.00 0.00 63 1012.3
20260509134328 68 207 4.0 14.0 0.00 0.00 0.00 62 1012.4
20260509133823 67 213 6.0 14.0 0.00 0.00 0.00 61 1012.4
20260509133334 67 167 4.0 13.0 0.00 0.00 0.00 61 1012.4
20260509132824 66 188 5.0 13.0 0.00 0.00 0.00 62 1012.5
20260509132320 66 209 5.0 11.0 0.00 0.00 0.00 62 1012.4
20260509131832 66 126 5.0 11.0 0.00 0.00 0.00 63 1012.4
20260509131323 65 232 4.0 11.0 0.00 0.00 0.00 64 1012.5
20260509130835 65 182 5.0 11.0 0.00 0.00 0.00 66 1012.4
20260509130329 64 197 4.0 12.0 0.00 0.00 0.00 66 1012.4
20260509125819 64 200 5.0 9.0 0.00 0.00 0.00 67 1012.5
20260509125334 64 184 5.0 13.0 0.00 0.00 0.00 67 1012.6
20260509124826 63 221 6.0 13.0 0.00 0.00 0.00 67 1012.6
20260509124317 63 284 2.0 10.0 0.00 0.00 0.00 68 1012.5
20260509123815 63 223 3.0 8.0 0.00 0.00 0.00 68 1012.5
20260509123327 63 190 4.0 9.0 0.00 0.00 0.00 69 1012.6
20260509122818 62 284 3.0 14.0 0.00 0.00 0.00 69 1012.6
20260509122329 62 189 6.0 14.0 0.00 0.00 0.00 69 1012.6
20260509121819 62 144 6.0 12.0 0.00 0.00 0.00 70 1012.7
20260509121331 61 213 4.0 10.0 0.00 0.00 0.00 70 1012.7
20260509120824 61 239 5.0 10.0 0.00 0.00 0.00 71 1012.7
20260509120355 61 302 5.0 9.0 0.00 0.00 0.00 71 1012.8
20260509115824 60 168 3.0 11.0 0.00 0.00 0.00 72 1012.8
20260509115323 60 209 3.0 11.0 0.00 0.00 0.00 72 1012.8
20260509114834 60 252 4.0 10.0 0.00 0.00 0.00 72 1012.8
20260509114326 60 182 4.0 10.0 0.00 0.00 0.00 72 1012.9
20260509113817 59 207 5.0 9.0 0.00 0.00 0.00 72 1012.9
20260509113329 59 268 4.0 13.0 0.00 0.00 0.00 72 1012.8
20260509112819 59 239 5.0 13.0 0.00 0.00 0.00 73 1012.8
20260509112332 59 174 3.0 7.0 0.00 0.00 0.00 73 1012.8
20260509111824 59 248 5.0 9.0 0.00 0.00 0.00 73 1012.8
20260509111320 59 197 4.0 9.0 0.00 0.00 0.00 74 1012.8
20260509110831 58 172 1.0 9.0 0.00 0.00 0.00 74 1012.8
20260509110322 58 203 4.0 9.0 0.00 0.00 0.00 74 1012.9
20260509105814 58 229 3.0 6.0 0.00 0.00 0.00 74 1012.8
20260509105346 58 218 2.0 7.0 0.00 0.00 0.00 74 1012.9
20260509104836 58 208 3.0 10.0 0.00 0.00 0.00 74 1012.8
20260509104328 57 221 2.0 10.0 0.00 0.00 0.00 74 1012.8
20260509103818 57 204 3.0 8.0 0.00 0.00 0.00 74 1012.8
20260509103350 57 256 4.0 8.0 0.00 0.00 0.00 74 1012.8
20260509102821 57 186 4.0 8.0 0.00 0.00 0.00 74 1012.8
20260509102317 57 211 2.0 6.0 0.00 0.00 0.00 74 1012.7
20260509101847 56 234 1.0 6.0 0.00 0.00 0.00 74 1012.7
20260509101318 56 144 4.0 8.0 0.00 0.00 0.00 74 1012.7
20260509100813 56 209 3.0 8.0 0.00 0.00 0.00 74 1012.6
20260509100327 56 184 4.0 7.0 0.00 0.00 0.00 74 1012.6
20260509095818 56 182 2.0 5.0 0.00 0.00 0.00 73 1012.6
20260509095331 56 186 2.0 6.0 0.00 0.00 0.00 73 1012.7
20260509094822 56 154 2.0 7.0 0.00 0.00 0.00 73 1012.6
20260509094320 56 196 2.0 7.0 0.00 0.00 0.00 72 1012.5
20260509093832 56 215 3.0 5.0 0.00 0.00 0.00 71 1012.6
20260509093323 56 237 2.0 9.0 0.00 0.00 0.00 71 1012.5
20260509092815 56 225 3.0 9.0 0.00 0.00 0.00 71 1012.6
20260509092327 56 221 4.0 8.0 0.00 0.00 0.00 71 1012.6
20260509091818 56 200 3.0 8.0 0.00 0.00 0.00 71 1012.5
20260509091329 56 153 3.0 8.0 0.00 0.00 0.00 70 1012.5